Tiempo cada hora Panguipulli

Hoy, 25 Octubre, Domingo

Tiempo Temperatura Precipitaciones Viento Presión Humedad
00:00 +4°C° 0 mm 0 mps 746 mmHg 99%
01:00 +4°C° 0 mm 0 mps 746 mmHg 99%
02:00 +5°C° 0 mm 0 mps 747 mmHg 98%
03:00 +5°C° 0 mm 0 mps 747 mmHg 98%
04:00 +6°C° 0 mm 0 mps 747 mmHg 98%
05:00 +6°C° 0.1 mm 0 mps 747 mmHg 97%
06:00 +7°C° 0.1 mm 0 mps 747 mmHg 96%
07:00 +8°C° 0.1 mm 0 mps 748 mmHg 95%
08:00 +10°C° 0.1 mm 1 mps 748 mmHg 81%
09:00 +12°C° 0.1 mm 1 mps 748 mmHg 67%
10:00 +14°C° 0.1 mm 1 mps 748 mmHg 52%
11:00 +15°C° 0 mm 1 mps 747 mmHg 47%
12:00 +16°C° 0 mm 2 mps 747 mmHg 42%
13:00 +17°C° 0 mm 2 mps 747 mmHg 37%
14:00 +16°C° 0 mm 2 mps 747 mmHg 40%
15:00 +16°C° 0 mm 2 mps 747 mmHg 43%
16:00 +15°C° 0 mm 2 mps 746 mmHg 45%
17:00 +13°C° 0 mm 2 mps 747 mmHg 57%
18:00 +10°C° 0 mm 1 mps 747 mmHg 69%
19:00 +6°C° 0 mm 0 mps 748 mmHg 81%
20:00 +5°C° 0 mm 0 mps 748 mmHg 85%
21:00 +4°C° 0 mm 0 mps 748 mmHg 90%
22:00 +4°C° 0 mm 0 mps 748 mmHg 94%
23:00 +3°C° 0 mm 0 mps 747 mmHg 94%

Mañana, 26 Octubre, Lunes

Tiempo Temperatura Precipitaciones Viento Presión Humedad
00:00 +3°C° 0 mm 0 mps 747 mmHg 94%
01:00 +3°C° 0 mm 0 mps 746 mmHg 94%
02:00 +3°C° 0 mm 0 mps 746 mmHg 94%
03:00 +3°C° 0 mm 0 mps 745 mmHg 93%
04:00 +3°C° 0 mm 0 mps 745 mmHg 93%
05:00 +5°C° 0 mm 0 mps 744 mmHg 84%
06:00 +7°C° 0 mm 0 mps 744 mmHg 74%
07:00 +9°C° 0 mm 0 mps 744 mmHg 65%
08:00 +11°C° 0 mm 1 mps 743 mmHg 58%
09:00 +13°C° 0 mm 1 mps 743 mmHg 52%
10:00 +14°C° 0 mm 2 mps 742 mmHg 45%
11:00 +15°C° 0 mm 2 mps 742 mmHg 44%
12:00 +15°C° 0 mm 2 mps 741 mmHg 43%
13:00 +15°C° 0 mm 2 mps 741 mmHg 43%
14:00 +14°C° 0.1 mm 2 mps 741 mmHg 55%
15:00 +13°C° 0.1 mm 1 mps 740 mmHg 67%
16:00 +12°C° 0.1 mm 1 mps 740 mmHg 79%
17:00 +11°C° 1 mm 1 mps 740 mmHg 86%
18:00 +10°C° 1 mm 1 mps 740 mmHg 92%
19:00 +9°C° 1 mm 1 mps 740 mmHg 98%
20:00 +9°C° 1.2 mm 1 mps 740 mmHg 98%
21:00 +9°C° 1.2 mm 1 mps 741 mmHg 99%
22:00 +9°C° 1.2 mm 1 mps 741 mmHg 99%
23:00 +9°C° 1 mm 1 mps 741 mmHg 99%

Pasado mañana, 27 Octubre, Martes

Tiempo Temperatura Precipitaciones Viento Presión Humedad
00:00 +9°C° 1 mm 1 mps 740 mmHg 99%
01:00 +9°C° 1 mm 1 mps 740 mmHg 99%
02:00 +9°C° 0.4 mm 1 mps 740 mmHg 99%
03:00 +8°C° 0.4 mm 1 mps 740 mmHg 99%
04:00 +8°C° 0.4 mm 1 mps 740 mmHg 99%
05:00 +8°C° 0.2 mm 1 mps 740 mmHg 98%
06:00 +8°C° 0.2 mm 1 mps 741 mmHg 97%
07:00 +8°C° 0.2 mm 1 mps 741 mmHg 97%
08:00 +9°C° 0.5 mm 1 mps 741 mmHg 92%
09:00 +9°C° 0.5 mm 2 mps 741 mmHg 88%
10:00 +9°C° 0.5 mm 2 mps 741 mmHg 83%
11:00 +9°C° 0.9 mm 2 mps 742 mmHg 88%
12:00 +8°C° 0.9 mm 2 mps 742 mmHg 92%
13:00 +7°C° 0.9 mm 2 mps 742 mmHg 96%
14:00 +8°C° 0.6 mm 2 mps 743 mmHg 91%
15:00 +8°C° 0.6 mm 2 mps 743 mmHg 86%
16:00 +9°C° 0.6 mm 2 mps 744 mmHg 81%
17:00 +7°C° 0.2 mm 2 mps 744 mmHg 83%
18:00 +7°C° 0.2 mm 1 mps 745 mmHg 86%
19:00 +6°C° 0.2 mm 1 mps 746 mmHg 88%
20:00 +5°C° 0 mm 1 mps 746 mmHg 91%
21:00 +3°C° 0 mm 0 mps 747 mmHg 95%
22:00 +3°C° 0 mm 0 mps 748 mmHg 98%
23:00 +2°C° 0 mm 0 mps 748 mmHg 98%

28 Octubre, Miércoles

Tiempo Temperatura Precipitaciones Viento Presión Humedad
00:00 +2°C° 0 mm 0 mps 748 mmHg 98%
01:00 +2°C° 0 mm 0 mps 748 mmHg 98%
02:00 +2°C° 0 mm 0 mps 749 mmHg 98%
03:00 +3°C° 0 mm 0 mps 749 mmHg 97%
04:00 +4°C° 0 mm 0 mps 750 mmHg 96%
05:00 +5°C° 0 mm 0 mps 750 mmHg 92%
06:00 +6°C° 0 mm 0 mps 750 mmHg 88%
07:00 +7°C° 0 mm 0 mps 750 mmHg 84%
08:00 +8°C° 0.1 mm 0 mps 750 mmHg 80%
09:00 +9°C° 0.1 mm 0 mps 750 mmHg 75%
10:00 +11°C° 0.1 mm 0 mps 750 mmHg 71%
11:00 +13°C° 0.1 mm 1 mps 750 mmHg 66%
12:00 +13°C° 0.1 mm 1 mps 750 mmHg 61%
13:00 +14°C° 0.1 mm 1 mps 750 mmHg 56%
14:00 +14°C° 0 mm 1 mps 750 mmHg 58%
15:00 +14°C° 0 mm 1 mps 750 mmHg 60%
16:00 +14°C° 0 mm 1 mps 749 mmHg 62%
17:00 +12°C° 0 mm 1 mps 750 mmHg 70%
18:00 +11°C° 0 mm 1 mps 750 mmHg 79%
19:00 +8°C° 0 mm 0 mps 750 mmHg 88%
20:00 +7°C° 0 mm 0 mps 750 mmHg 91%
21:00 +6°C° 0 mm 0 mps 750 mmHg 94%
22:00 +5°C° 0 mm 0 mps 751 mmHg 98%
23:00 +5°C° 0 mm 0 mps 750 mmHg 98%

29 Octubre, Jueves

Tiempo Temperatura Precipitaciones Viento Presión Humedad
00:00 +5°C° 0 mm 0 mps 750 mmHg 98%
01:00 +5°C° 0 mm 1 mps 750 mmHg 99%
02:00 +5°C° 0 mm 1 mps 749 mmHg 98%
03:00 +5°C° 0 mm 1 mps 749 mmHg 98%
04:00 +4°C° 0 mm 1 mps 749 mmHg 98%
05:00 +6°C° 0 mm 1 mps 749 mmHg 93%
06:00 +7°C° 0 mm 1 mps 749 mmHg 88%
07:00 +8°C° 0 mm 1 mps 748 mmHg 83%
08:00 +11°C° 0 mm 1 mps 748 mmHg 71%
09:00 +14°C° 0 mm 1 mps 747 mmHg 58%
10:00 +18°C° 0 mm 1 mps 747 mmHg 46%
11:00 +19°C° 0 mm 1 mps 746 mmHg 44%
12:00 +19°C° 0 mm 2 mps 746 mmHg 42%
13:00 +20°C° 0 mm 2 mps 745 mmHg 40%
14:00 +20°C° 0 mm 2 mps 745 mmHg 42%
15:00 +20°C° 0 mm 2 mps 745 mmHg 44%
16:00 +20°C° 0 mm 2 mps 744 mmHg 46%
17:00 +18°C° 0 mm 1 mps 744 mmHg 56%
18:00 +14°C° 0 mm 1 mps 745 mmHg 65%
19:00 +12°C° 0 mm 1 mps 745 mmHg 74%
20:00 +11°C° 0 mm 1 mps 745 mmHg 79%
21:00 +10°C° 0 mm 1 mps 745 mmHg 83%
22:00 +8°C° 0 mm 1 mps 745 mmHg 87%
23:00 +8°C° 0 mm 1 mps 745 mmHg 90%

30 Octubre, Viernes

Tiempo Temperatura Precipitaciones Viento Presión Humedad
00:00 +7°C° 0 mm 1 mps 744 mmHg 92%
01:00 +7°C° 0 mm 1 mps 744 mmHg 95%
02:00 +7°C° 0 mm 1 mps 744 mmHg 95%
03:00 +7°C° 0 mm 1 mps 744 mmHg 94%
04:00 +7°C° 0 mm 1 mps 744 mmHg 93%
05:00 +8°C° 0 mm 1 mps 744 mmHg 88%
06:00 +10°C° 0 mm 1 mps 745 mmHg 83%
07:00 +10°C° 0 mm 0 mps 745 mmHg 77%
08:00 +14°C° 0 mm 1 mps 745 mmHg 67%
09:00 +18°C° 0 mm 1 mps 745 mmHg 56%
10:00 +21°C° 0 mm 1 mps 745 mmHg 46%
11:00 +22°C° 0 mm 1 mps 744 mmHg 43%
12:00 +23°C° 0 mm 2 mps 744 mmHg 41%
13:00 +25°C° 0 mm 2 mps 744 mmHg 39%
14:00 +24°C° 0 mm 2 mps 744 mmHg 41%
15:00 +24°C° 0 mm 2 mps 744 mmHg 42%
16:00 +24°C° 0 mm 1 mps 744 mmHg 44%
17:00 +21°C° 0 mm 1 mps 744 mmHg 58%
18:00 +18°C° 0 mm 1 mps 745 mmHg 71%
19:00 +13°C° 0 mm 0 mps 745 mmHg 85%
20:00 +11°C° 0 mm 0 mps 745 mmHg 88%
21:00 +10°C° 0 mm 0 mps 746 mmHg 91%
22:00 +9°C° 0 mm 0 mps 746 mmHg 93%
23:00 +8°C° 0 mm 0 mps 746 mmHg 94%
Mostrar más

Necesitamos Su Consentimiento

Meteoprog y nuestros Proveedores de Servicios pueden almacenar y acceder a sus datos personales como cookies, identificadores de dispositivo u otras tecnologías similares de su dispositivo y procesar dichos datos para personalizar contenido y anuncios, además de ofrecer funciones de redes sociales y analizar el tráfico.

  • Almacenar y/o acceder a información en su dispositivo

    Se puede almacenar o acceder a cookies, identificadores de dispositivo u otra información de su dispositivo para los fines anteriormente indicados.

  • Anuncios y contenido personalizados, medición de anuncios y contenido, percepciones del público, y desarrollo de productos

    Los anuncios y el contenido pueden personalizarse en base a su perfil. Se pueden añadir más datos para personalizar mejor los anuncios y contenidos. Se puede medir el rendimiento de los anuncios y contenidos. Se puede obtener la percepción sobre el público que ha visto los anuncios y contenidos. Dichos datos pueden usarse para desarrollar o mejorar la experiencia del usuario, sistemas y software.

Al hacer clic en ‘Estoy De Acuerdo’ usted permitirá el uso de las cookies, identificadores de dispositivo, balizas web u otras tecnologías similares indicadas. Su configuración puede cambiarse desde el navegador de su dispositivo.

Para ciertos fines, los intereses legítimos pueden ser considerados por encima del consentimiento. Puede leer más sobre ello en nuestra Política de Privacidad y Cookies.